sat.trackr.live / text

‹ back to catalog

STARLINK-11418 [DTC]

NORAD 63058 · 2025-035G

PAYLOAD ACTIVE UNKNOWN

§ Identity

Operator
Country
US
Launch date
2025-02-21
Launch site
AFETR
Launch vehicle
Mass (kg)
RCS (m²)

Purposes: comms

External: N2YO · Heavens-Above · Gunter

§ Orbital elements

Epoch: 2026-09-21T01:29:25.778688Z

Period
91.67 min
Inclination
42.9986°
Eccentricity
0.0001298
Mean motion
15.70872362 rev/d
Perigee alt
355.5 km
Apogee alt
357.3 km
Semi-major
6,734.5 km
B*
1.2105e-3
RAAN
278.0799°
Arg perigee
256.2800°
Mean anomaly
103.7924°
Rev number
9,182

§ Raw data

STARLINK-11418 [DTC]1 63058U 25035G   26264.06210392  .00158079  00000+0  12105-2 0  99902 63058  42.9986 278.0799 0001298 256.2800 103.7924 15.70872362 91824

JSON: /api/v1/satellites/63058 · /tle

For live sub-satellite position, see the globe view (requires WebGL).

§ Visibility from observer

Set your observer location to see the next 7 days of passes ≥ 10°. The values pass through the URL so the page stays shareable.

No JS? Fill the form by hand. The geolocation button needs JavaScript.